,,,PA_Meas_PMT16A,,PR_Meas_QMR101_102,,RH_Meas_QMH101,,SR_Meas_QMS101,,TA_Meas_QMH101,,GenWind,,GenWind,
date,time,status,PA,status,PR,status,RH,status,SR,status,TA,status,DirAvg,status,SpdAvg,
2008-05-18, 00:00:04,VALID,1006.69,VALID,0,VALID,95.1169,VALID,0,VALID,24.4257,VALID,358,VALID,0.616016,
2008-05-18, 00:01:04,VALID,1006.68,VALID,0,VALID,95.1703,VALID,0,VALID,24.4451,VALID,355,VALID,0.728906,
2008-05-18, 00:02:04,VALID,1006.7,VALID,0,VALID,95.155,VALID,0,VALID,24.4433,VALID,354,VALID,0.577734,
2008-05-18, 00:03:04,VALID,1006.69,VALID,0,VALID,95.1474,VALID,0,VALID,24.4841,VALID,351,VALID,0.4625,
2008-05-18, 00:04:04,VALID,1006.7,VALID,0,VALID,95.1245,VALID,0,VALID,24.5035,VALID,351,VALID,0.487891,
2008-05-18, 00:05:04,VALID,1006.68,VALID,0,VALID,95.1627,VALID,0,VALID,24.523,VALID,352,VALID,0.457812,
2008-05-18, 00:06:04,VALID,1006.69,VALID,0,VALID,95.1398,VALID,0,VALID,24.523,VALID,352,VALID,0.430469,
2008-05-18, 00:07:04,VALID,1006.68,VALID,0,VALID,95.1474,VALID,0,VALID,24.562,VALID,352,VALID,0.367578,
2008-05-18, 00:08:04,VALID,1006.71,VALID,0,VALID,95.1474,VALID,0,VALID,24.562,VALID,352,VALID,0.422266,
2008-05-18, 00:09:04,VALID,1006.71,VALID,0,VALID,95.1245,VALID,0,VALID,24.5814,VALID,352,VALID,0.400781,
2008-05-18, 00:10:04,VALID,1006.74,VALID,0,VALID,95.0864,VALID,0,VALID,24.5814,VALID,352,VALID,0.403125,
2008-05-18, 00:11:04,VALID,1006.71,VALID,0,VALID,95.1016,VALID,0,VALID,24.5814,VALID,352,VALID,0.326953,
2008-05-18, 00:12:04,VALID,1006.73,VALID,0,VALID,95.1169,VALID,0,VALID,24.6009,VALID,352,VALID,0.304297,
2008-05-18, 00:13:04,VALID,1006.71,VALID,0,VALID,95.1093,VALID,0,VALID,24.6009,VALID,352,VALID,0.307031,
2008-05-18, 00:14:04,VALID,1006.76,VALID,0,VALID,95.0864,VALID,0,VALID,24.6204,VALID,352,VALID,0.319922,
2008-05-18, 00:15:04,VALID,1006.73,VALID,0,VALID,95.0482,VALID,0,VALID,24.6009,VALID,352,VALID,0.339844,
2008-05-18, 00:16:04,VALID,1006.68,VALID,0,VALID,95.0558,VALID,0,VALID,24.6009,VALID,352,VALID,0.225781,
2008-05-18, 00:17:04,VALID,1006.66,VALID,0,VALID,95.0253,VALID,0,VALID,24.6204,VALID,352,VALID,0.240234,
2008-05-18, 00:18:04,VALID,1006.67,VALID,0,VALID,95.0558,VALID,0,VALID,24.599,VALID,352,VALID,0.210938,
2008-05-18, 00:19:04,VALID,1006.62,VALID,0,VALID,95.0635,VALID,0,VALID,24.6204,VALID,352,VALID,0.189453,
2008-05-18, 00:20:04,VALID,1006.6,VALID,0,VALID,95.0482,VALID,0,VALID,24.6398,VALID,352,VALID,0.264062,
2008-05-18, 00:21:04,VALID,1006.57,VALID,0,VALID,95.0482,VALID,0,VALID,24.6204,VALID,352,VALID,0.258594,
2008-05-18, 00:22:04,VALID,1006.53,VALID,0,VALID,95.0253,VALID,0,VALID,24.599,VALID,352,VALID,0.298047,
2008-05-18, 00:23:04,VALID,1006.5,VALID,0,VALID,95.0406,VALID,0,VALID,24.6398,VALID,352,VALID,0.294141,
2008-05-18, 00:24:04,VALID,1006.47,VALID,0,VALID,95.0024,VALID,0,VALID,24.6398,VALID,352,VALID,0.301953,
2008-05-18, 00:25:04,VALID,1006.43,VALID,0,VALID,94.9872,VALID,0,VALID,24.6398,VALID,352,VALID,0.277734,
2008-05-18, 00:26:04,VALID,1006.4,VALID,0,VALID,94.9567,VALID,0,VALID,24.6593,VALID,352,VALID,0.435547,
2008-05-18, 00:27:04,VALID,1006.35,VALID,0,VALID,94.9796,VALID,0,VALID,24.638,VALID,352,VALID,0.580078,
2008-05-18, 00:28:04,VALID,1006.33,VALID,0,VALID,94.9414,VALID,0,VALID,24.638,VALID,353,VALID,0.701172,
2008-05-18, 00:29:04,VALID,1006.29,VALID,0,VALID,94.949,VALID,0,VALID,24.638,VALID,353,VALID,0.533984,
2008-05-18, 00:30:04,VALID,1006.25,VALID,0,VALID,94.9338,VALID,0,VALID,24.6398,VALID,353,VALID,0.599219,
2008-05-18, 00:31:04,VALID,1006.24,VALID,0,VALID,94.9109,VALID,0,VALID,24.6185,VALID,353,VALID,0.601563,
2008-05-18, 00:32:04,VALID,1006.21,VALID,0,VALID,94.9414,VALID,0,VALID,24.599,VALID,354,VALID,0.618359,
2008-05-18, 00:33:04,VALID,1006.2,VALID,0,VALID,94.9643,VALID,0.100563,VALID,24.599,VALID,354,VALID,0.519922,
2008-05-18, 00:34:04,VALID,1006.19,VALID,0,VALID,94.9948,VALID,0,VALID,24.5796,VALID,354,VALID,0.378516,
2008-05-18, 00:35:04,VALID,1006.14,VALID,0,VALID,95.0177,VALID,0,VALID,24.6204,VALID,354,VALID,0.384375,
2008-05-18, 00:36:04,VALID,1006.13,VALID,0,VALID,95.0253,VALID,0,VALID,24.6009,VALID,354,VALID,0.317969,
2008-05-18, 00:37:04,VALID,1006.12,VALID,0,VALID,95.0177,VALID,0.100563,VALID,24.6204,VALID,354,VALID,0.230078,
2008-05-18, 00:38:04,VALID,1006.1,VALID,0,VALID,95.0406,VALID,0.100563,VALID,24.5796,VALID,354,VALID,0.413672,
2008-05-18, 00:39:04,VALID,1006.09,VALID,0,VALID,94.9948,VALID,0,VALID,24.5796,VALID,354,VALID,0.354688,
2008-05-18, 00:40:04,VALID,1006.1,VALID,0,VALID,95.0177,VALID,0,VALID,24.5601,VALID,354,VALID,0.360547,
2008-05-18, 00:41:04,VALID,1006.1,VALID,0,VALID,95.0024,VALID,0,VALID,24.6009,VALID,354,VALID,0.329297,
2008-05-18, 00:42:04,VALID,1006.07,VALID,0,VALID,94.9948,VALID,0.100563,VALID,24.5814,VALID,354,VALID,0.319531,
2008-05-18, 00:43:04,VALID,1006.08,VALID,0,VALID,94.9948,VALID,0,VALID,24.5601,VALID,354,VALID,0.315625,
2008-05-18, 00:44:04,VALID,1006.07,VALID,0,VALID,94.9948,VALID,0.100563,VALID,24.562,VALID,354,VALID,0.296875,
2008-05-18, 00:45:04,VALID,1006.06,VALID,0,VALID,95.0253,VALID,0,VALID,24.5425,VALID,354,VALID,0.171875,
2008-05-18, 00:46:04,VALID,1006.02,VALID,0,VALID,95.0406,VALID,0.100563,VALID,24.5425,VALID,354,VALID,0.198828,
2008-05-18, 00:47:04,VALID,1006.01,VALID,0,VALID,95.0406,VALID,0,VALID,24.5212,VALID,354,VALID,0.185547,
2008-05-18, 00:48:04,VALID,1006.01,VALID,0,VALID,95.033,VALID,0.100563,VALID,24.5212,VALID,354,VALID,0.0683594,
2008-05-18, 00:49:04,VALID,1005.99,VALID,0,VALID,95.0406,VALID,0.100563,VALID,24.5406,VALID,354,VALID,0.00234375,
2008-05-18, 00:50:04,VALID,1005.94,VALID,0,VALID,95.033,VALID,0,VALID,24.5425,VALID,354,VALID,0,
2008-05-18, 00:51:04,VALID,1005.92,VALID,0,VALID,95.033,VALID,0.100563,VALID,24.5212,VALID,354,VALID,0,
2008-05-18, 00:52:04,VALID,1005.9,VALID,0,VALID,95.033,VALID,0.100563,VALID,24.5212,VALID,354,VALID,0.0183594,
2008-05-18, 00:53:04,VALID,1005.91,VALID,0,VALID,95.0024,VALID,0.100563,VALID,24.5017,VALID,354,VALID,0.0761719,
2008-05-18, 00:54:04,VALID,1005.88,VALID,0,VALID,95.0177,VALID,0,VALID,24.5035,VALID,354,VALID,0.232031,
2008-05-18, 00:55:04,VALID,1005.86,VALID,0,VALID,95.0101,VALID,0,VALID,24.4822,VALID,354,VALID,0.441406,
2008-05-18, 00:56:04,VALID,1005.83,VALID,0,VALID,95.0177,VALID,0,VALID,24.5035,VALID,354,VALID,0.544531,
2008-05-18, 00:57:04,VALID,1005.83,VALID,0,VALID,95.0177,VALID,0,VALID,24.523,VALID,357,VALID,0.503516,
2008-05-18, 00:58:04,VALID,1005.81,VALID,0,VALID,95.0406,VALID,0,VALID,24.5017,VALID,6,VALID,0.646484,
2008-05-18, 00:59:04,VALID,1005.77,VALID,0,VALID,95.0635,VALID,0,VALID,24.5017,VALID,7,VALID,0.539844,
2008-05-18, 01:00:04,VALID,1005.75,VALID,0,VALID,95.0406,VALID,0,VALID,24.5212,VALID,8,VALID,0.469531,
2008-05-18, 01:01:04,VALID,1005.73,VALID,0,VALID,94.9872,VALID,0,VALID,24.5425,VALID,8,VALID,0.275,
2008-05-18, 01:02:04,VALID,1005.7,VALID,0,VALID,94.9719,VALID,0,VALID,24.5406,VALID,8,VALID,0.312109,
2008-05-18, 01:03:04,VALID,1005.68,VALID,0,VALID,94.9567,VALID,0,VALID,24.5425,VALID,8,VALID,0.214062,
2008-05-18, 01:04:04,VALID,1005.62,VALID,0,VALID,94.9414,VALID,0,VALID,24.5212,VALID,8,VALID,0.196484,
2008-05-18, 01:05:04,VALID,1005.57,VALID,0,VALID,94.9643,VALID,0.100563,VALID,24.5425,VALID,8,VALID,0.241797,
2008-05-18, 01:06:04,VALID,1005.57,VALID,0,VALID,94.949,VALID,0,VALID,24.5425,VALID,8,VALID,0.349609,
2008-05-18, 01:07:04,VALID,1005.51,VALID,0,VALID,94.9719,VALID,0,VALID,24.5212,VALID,8,VALID,0.333594,
2008-05-18, 01:08:04,VALID,1005.49,VALID,0,VALID,94.9719,VALID,0.100563,VALID,24.5425,VALID,8,VALID,0.447656,
2008-05-18, 01:09:04,VALID,1005.5,VALID,0,VALID,95.0024,VALID,0.100563,VALID,24.5212,VALID,8,VALID,0.417578,
2008-05-18, 01:10:04,VALID,1005.49,VALID,0,VALID,95.0101,VALID,0,VALID,24.5017,VALID,8,VALID,0.464453,
2008-05-18, 01:11:04,VALID,1005.48,VALID,0,VALID,95.0101,VALID,0.100563,VALID,24.5017,VALID,8,VALID,0.389062,
2008-05-18, 01:12:04,VALID,1005.45,VALID,0,VALID,95.0101,VALID,0.100563,VALID,24.5425,VALID,8,VALID,0.373828,
2008-05-18, 01:13:04,VALID,1005.43,VALID,0,VALID,95.0177,VALID,0,VALID,24.5017,VALID,8,VALID,0.334766,
2008-05-18, 01:14:04,VALID,1005.39,VALID,0,VALID,95.0024,VALID,0,VALID,24.5017,VALID,8,VALID,0.319531,
2008-05-18, 01:15:04,VALID,1005.37,VALID,0,VALID,95.0101,VALID,0,VALID,24.4822,VALID,8,VALID,0.308203,
2008-05-18, 01:16:04,VALID,1005.35,VALID,0,VALID,95.0177,VALID,0.100563,VALID,24.5017,VALID,8,VALID,0.232031,
2008-05-18, 01:17:04,VALID,1005.36,VALID,0,VALID,95.033,VALID,0,VALID,24.4822,VALID,8,VALID,0.230859,
2008-05-18, 01:18:04,VALID,1005.33,VALID,0,VALID,95.033,VALID,0,VALID,24.5035,VALID,8,VALID,0.348437,
2008-05-18, 01:19:04,VALID,1005.32,VALID,0,VALID,95.0558,VALID,0,VALID,24.4822,VALID,8,VALID,0.371484,
2008-05-18, 01:20:04,VALID,1005.3,VALID,0,VALID,95.0787,VALID,0,VALID,24.5035,VALID,8,VALID,0.414844,
2008-05-18, 01:21:04,VALID,1005.3,VALID,0,VALID,95.0558,VALID,0,VALID,24.4841,VALID,8,VALID,0.369531,
2008-05-18, 01:22:04,VALID,1005.29,VALID,0,VALID,95.0635,VALID,0.100563,VALID,24.4628,VALID,8,VALID,0.548047,
2008-05-18, 01:23:04,VALID,1005.28,VALID,0,VALID,95.0406,VALID,0.100563,VALID,24.4628,VALID,8,VALID,0.453906,
2008-05-18, 01:24:04,VALID,1005.26,VALID,0,VALID,95.0711,VALID,0,VALID,24.4433,VALID,8,VALID,0.486719,
2008-05-18, 01:25:04,VALID,1005.23,VALID,0,VALID,95.094,VALID,0.100563,VALID,24.4433,VALID,8,VALID,0.451172,
2008-05-18, 01:26:04,VALID,1005.21,VALID,0,VALID,95.1169,VALID,0,VALID,24.4238,VALID,8,VALID,0.434766,
2008-05-18, 01:27:04,VALID,1005.17,VALID,0,VALID,95.1474,VALID,0,VALID,24.4257,VALID,8,VALID,0.369922,
2008-05-18, 01:28:04,VALID,1005.17,VALID,0,VALID,95.1627,VALID,0,VALID,24.4257,VALID,8,VALID,0.348437,
2008-05-18, 01:29:04,VALID,1005.16,VALID,0,VALID,95.1703,VALID,0,VALID,24.4257,VALID,8,VALID,0.467187,
2008-05-18, 01:30:04,VALID,1005.11,VALID,0,VALID,95.1932,VALID,0,VALID,24.447,VALID,8,VALID,0.557031,
2008-05-18, 01:31:04,VALID,1005.09,VALID,0,VALID,95.1703,VALID,0,VALID,24.4257,VALID,8,VALID,0.487109,
2008-05-18, 01:32:04,VALID,1005.07,VALID,0,VALID,95.1855,VALID,0,VALID,24.4062,VALID,8,VALID,0.576563,
2008-05-18, 01:33:04,VALID,1005.05,VALID,0,VALID,95.155,VALID,0,VALID,24.4062,VALID,8,VALID,0.500391,
2008-05-18, 01:34:04,VALID,1005.06,VALID,0,VALID,95.1855,VALID,0,VALID,24.3867,VALID,8,VALID,0.389844,
2008-05-18, 01:35:04,VALID,1005.02,VALID,0,VALID,95.2008,VALID,0,VALID,24.3867,VALID,8,VALID,0.514844,
2008-05-18, 01:36:04,VALID,1005.05,VALID,0,VALID,95.2084,VALID,0,VALID,24.3867,VALID,8,VALID,0.395703,
2008-05-18, 01:37:04,VALID,1005.04,VALID,0,VALID,95.1932,VALID,0,VALID,24.3886,VALID,8,VALID,0.384766,
2008-05-18, 01:38:04,VALID,1005.03,VALID,0,VALID,95.1932,VALID,0,VALID,24.3673,VALID,8,VALID,0.373047,
2008-05-18, 01:39:04,VALID,1005.06,VALID,0,VALID,95.155,VALID,0,VALID,24.3691,VALID,8,VALID,0.349609,
2008-05-18, 01:40:04,VALID,1005.04,VALID,0,VALID,95.2313,VALID,0,VALID,24.3496,VALID,8,VALID,0.233984,
2008-05-18, 01:41:04,VALID,1005.03,VALID,0,VALID,95.2389,VALID,0,VALID,24.3283,VALID,8,VALID,0.204297,
2008-05-18, 01:42:04,VALID,1005.03,VALID,0,VALID,95.2618,VALID,0,VALID,24.3478,VALID,8,VALID,0.282422,
2008-05-18, 01:43:04,VALID,1005.05,VALID,0,VALID,95.3,VALID,0,VALID,24.3478,VALID,8,VALID,0.333594,
2008-05-18, 01:44:04,VALID,1005.06,VALID,0,VALID,95.3152,VALID,0,VALID,24.3478,VALID,8,VALID,0.172656,
2008-05-18, 01:45:04,VALID,1005.08,VALID,0,VALID,95.3,VALID,0,VALID,24.3478,VALID,8,VALID,0.360156,
2008-05-18, 01:46:04,VALID,1005.06,VALID,0,VALID,95.2847,VALID,0,VALID,24.3478,VALID,6,VALID,0.340625,
2008-05-18, 01:47:04,VALID,1005.1,VALID,0,VALID,95.2618,VALID,0,VALID,24.3478,VALID,6,VALID,0.309766,
2008-05-18, 01:48:04,VALID,1005.1,VALID,0,VALID,95.2542,VALID,0,VALID,24.3478,VALID,6,VALID,0.266797,
2008-05-18, 01:49:04,VALID,1005.13,VALID,0,VALID,95.2237,VALID,0,VALID,24.3283,VALID,6,VALID,0.173828,
2008-05-18, 01:50:04,VALID,1005.2,VALID,0,VALID,95.2618,VALID,0,VALID,24.3302,VALID,5,VALID,0.253125,
2008-05-18, 01:51:04,VALID,1005.23,VALID,0,VALID,95.2847,VALID,0,VALID,24.3283,VALID,6,VALID,0.176563,
2008-05-18, 01:52:04,VALID,1005.3,VALID,0,VALID,95.2771,VALID,0,VALID,24.3302,VALID,5,VALID,0,
2008-05-18, 01:53:04,VALID,1005.33,VALID,0,VALID,95.2618,VALID,0,VALID,24.3088,VALID,5,VALID,0,
2008-05-18, 01:54:04,VALID,1005.32,VALID,0,VALID,95.2313,VALID,0,VALID,24.3283,VALID,6,VALID,0,
2008-05-18, 01:55:04,VALID,1005.34,VALID,0,VALID,95.2389,VALID,0,VALID,24.3496,VALID,6,VALID,0,
2008-05-18, 01:56:04,VALID,1005.36,VALID,0,VALID,95.2389,VALID,0,VALID,24.3088,VALID,5,VALID,0.292969,
2008-05-18, 01:57:04,VALID,1005.36,VALID,0,VALID,95.2008,VALID,0,VALID,24.3088,VALID,6,VALID,0.325,
2008-05-18, 01:58:04,VALID,1005.32,VALID,0,VALID,95.1627,VALID,0,VALID,24.2894,VALID,6,VALID,0.462891,
2008-05-18, 01:59:04,VALID,1005.32,VALID,0,VALID,95.094,VALID,0,VALID,24.2699,VALID,7,VALID,0.392969,
2008-05-18, 02:00:04,VALID,1005.35,VALID,0,VALID,95.1093,VALID,0,VALID,24.231,VALID,10,VALID,0.289844,
2008-05-18, 02:01:04,VALID,1005.33,VALID,0,VALID,95.1169,VALID,0,VALID,24.2115,VALID,10,VALID,0.0136719,
2008-05-18, 02:02:04,VALID,1005.35,VALID,0,VALID,95.0864,VALID,0,VALID,24.192,VALID,10,VALID,0,
2008-05-18, 02:03:04,VALID,1005.37,VALID,0,VALID,95.094,VALID,0,VALID,24.1531,VALID,10,VALID,0,
2008-05-18, 02:04:04,VALID,1005.4,VALID,0,VALID,95.0787,VALID,0,VALID,24.1336,VALID,10,VALID,0,
2008-05-18, 02:05:04,VALID,1005.39,VALID,0,VALID,95.1093,VALID,0,VALID,24.1336,VALID,10,VALID,0,
2008-05-18, 02:06:04,VALID,1005.39,VALID,0,VALID,95.1474,VALID,0,VALID,24.1355,VALID,10,VALID,0,
2008-05-18, 02:07:04,VALID,1005.36,VALID,0,VALID,95.1703,VALID,0,VALID,24.1142,VALID,10,VALID,0,
2008-05-18, 02:08:04,VALID,1005.36,VALID,0,VALID,95.2847,VALID,0,VALID,24.1142,VALID,10,VALID,0.154687,
2008-05-18, 02:09:04,VALID,1005.35,VALID,0,VALID,95.3076,VALID,0,VALID,24.1549,VALID,10,VALID,0,
2008-05-18, 02:10:04,VALID,1005.34,VALID,0,VALID,95.3839,VALID,0,VALID,24.1531,VALID,29,VALID,0.273438,
2008-05-18, 02:11:04,VALID,1005.34,VALID,0,VALID,95.422,VALID,0,VALID,24.1744,VALID,29,VALID,0.227734,
2008-05-18, 02:12:04,VALID,1005.37,VALID,0,VALID,95.3991,VALID,0,VALID,24.1726,VALID,29,VALID,0.188281,
2008-05-18, 02:13:04,VALID,1005.37,VALID,0,VALID,95.361,VALID,0,VALID,24.1726,VALID,29,VALID,0,
2008-05-18, 02:14:04,VALID,1005.4,VALID,0,VALID,95.3457,VALID,0,VALID,24.1744,VALID,29,VALID,0.00117188,
2008-05-18, 02:15:04,VALID,1005.39,VALID,0,VALID,95.361,VALID,0,VALID,24.1531,VALID,29,VALID,0.323438,
2008-05-18, 02:16:04,VALID,1005.38,VALID,0,VALID,95.3991,VALID,0,VALID,24.1531,VALID,29,VALID,0.40625,
2008-05-18, 02:17:04,VALID,1005.34,VALID,0,VALID,95.4373,VALID,0,VALID,24.1726,VALID,29,VALID,0.344531,
2008-05-18, 02:18:04,VALID,1005.33,VALID,0,VALID,95.422,VALID,0,VALID,24.1726,VALID,29,VALID,0.243359,
2008-05-18, 02:19:04,VALID,1005.33,VALID,0,VALID,95.4068,VALID,0,VALID,24.192,VALID,29,VALID,0.175391,
2008-05-18, 02:20:04,VALID,1005.29,VALID,0,VALID,95.3915,VALID,0,VALID,24.192,VALID,29,VALID,0.288281,
2008-05-18, 02:21:04,VALID,1005.3,VALID,0,VALID,95.3915,VALID,0,VALID,24.192,VALID,29,VALID,0.264453,
2008-05-18, 02:22:04,VALID,1005.27,VALID,0,VALID,95.4373,VALID,0,VALID,24.192,VALID,28,VALID,0.33125,
2008-05-18, 02:23:04,VALID,1005.32,VALID,0,VALID,95.4373,VALID,0,VALID,24.2133,VALID,28,VALID,0.203516,
2008-05-18, 02:24:04,VALID,1005.33,VALID,0,VALID,95.4983,VALID,0,VALID,24.2115,VALID,28,VALID,0.0792969,
2008-05-18, 02:25:04,VALID,1005.38,VALID,0,VALID,95.4678,VALID,0,VALID,24.2115,VALID,28,VALID,0,
2008-05-18, 02:26:04,VALID,1005.41,VALID,0,VALID,95.4831,VALID,0,VALID,24.231,VALID,28,VALID,0,
2008-05-18, 02:27:04,VALID,1005.48,VALID,0,VALID,95.4907,VALID,0,VALID,24.2486,VALID,28,VALID,0,
2008-05-18, 02:28:04,VALID,1005.5,VALID,0,VALID,95.5288,VALID,0.100563,VALID,24.2662,VALID,28,VALID,0,
2008-05-18, 02:29:04,VALID,1005.53,VALID,0,VALID,95.5288,VALID,0.100563,VALID,24.307,VALID,28,VALID,0,
2008-05-18, 02:30:04,VALID,1005.54,VALID,0,VALID,95.6356,VALID,0.100563,VALID,24.3459,VALID,26,VALID,1.1832,
2008-05-18, 02:31:04,VALID,1005.61,VALID,0,VALID,95.5899,VALID,0,VALID,24.3654,VALID,195,VALID,0.976953,
2008-05-18, 02:32:04,VALID,1005.63,VALID,0,VALID,95.628,VALID,0.100563,VALID,24.4043,VALID,223,VALID,0.147266,
2008-05-18, 02:33:04,VALID,1005.63,VALID,0,VALID,95.5899,VALID,0.100563,VALID,24.4238,VALID,268,VALID,0.517969,
2008-05-18, 02:34:04,VALID,1005.6,VALID,0,VALID,95.506,VALID,0.100563,VALID,24.422,VALID,252,VALID,0.782031,
2008-05-18, 02:35:04,VALID,1005.67,VALID,0,VALID,95.3229,VALID,0,VALID,24.5017,VALID,257,VALID,0.887891,
2008-05-18, 02:36:04,VALID,1005.65,VALID,0,VALID,95.0482,VALID,0.100563,VALID,24.5406,VALID,230,VALID,0.358984,
2008-05-18, 02:37:04,VALID,1005.62,VALID,0,VALID,94.0336,VALID,0,VALID,24.5406,VALID,207,VALID,1.4125,
2008-05-18, 02:38:04,VALID,1005.65,VALID,0,VALID,93.469,VALID,0.100563,VALID,24.6788,VALID,245,VALID,1.06562,
2008-05-18, 02:39:04,VALID,1005.63,VALID,0,VALID,92.6604,VALID,0.100563,VALID,24.7548,VALID,252,VALID,0.946484,
2008-05-18, 02:40:04,VALID,1005.63,VALID,0,VALID,91.8975,VALID,0.100563,VALID,24.8716,VALID,162,VALID,0.866797,
2008-05-18, 02:41:04,VALID,1005.6,VALID,0,VALID,90.982,VALID,0.100563,VALID,24.9885,VALID,175,VALID,0.526563,
2008-05-18, 02:42:04,VALID,1005.58,VALID,0,VALID,89.9445,VALID,0,VALID,25.0488,VALID,283,VALID,1.29844,
2008-05-18, 02:43:04,VALID,1005.57,VALID,0,VALID,89.6927,VALID,0,VALID,25.1267,VALID,229,VALID,0.410547,
2008-05-18, 02:44:04,VALID,1005.54,VALID,0,VALID,89.3723,VALID,0,VALID,25.2046,VALID,269,VALID,1.16719,
2008-05-18, 02:45:04,VALID,1005.53,VALID,0,VALID,89.0977,VALID,0,VALID,25.2435,VALID,248,VALID,0.582031,
2008-05-18, 02:46:04,VALID,1005.48,VALID,0,VALID,88.8612,VALID,0,VALID,25.2806,VALID,162,VALID,0.847656,
2008-05-18, 02:47:04,VALID,1005.47,VALID,0,VALID,88.5713,VALID,0,VALID,25.3214,VALID,327,VALID,0.364062,
2008-05-18, 02:48:04,VALID,1005.46,VALID,0,VALID,88.6934,VALID,0,VALID,25.3604,VALID,177,VALID,0.192188,
2008-05-18, 02:49:04,VALID,1005.47,VALID,0,VALID,88.4187,VALID,0,VALID,25.3798,VALID,306,VALID,0.671875,
2008-05-18, 02:50:04,VALID,1005.47,VALID,0,VALID,88.3348,VALID,0,VALID,25.3993,VALID,309,VALID,0.751562,
2008-05-18, 02:51:04,VALID,1005.49,VALID,0,VALID,88.1746,VALID,0,VALID,25.4188,VALID,314,VALID,0.872656,
2008-05-18, 02:52:04,VALID,1005.43,VALID,0,VALID,88.2356,VALID,0,VALID,25.4383,VALID,238,VALID,0.379297,
2008-05-18, 02:53:04,VALID,1005.41,VALID,0,VALID,88.2661,VALID,0,VALID,25.4577,VALID,278,VALID,1.26406,
2008-05-18, 02:54:04,VALID,1005.38,VALID,0,VALID,88.4416,VALID,0,VALID,25.4772,VALID,197,VALID,1.01563,
2008-05-18, 02:55:04,VALID,1005.32,VALID,0,VALID,88.6018,VALID,0,VALID,25.4772,VALID,220,VALID,0.359375,
2008-05-18, 02:56:04,VALID,1005.28,VALID,0,VALID,88.907,VALID,0,VALID,25.4986,VALID,279,VALID,0.512109,
2008-05-18, 02:57:04,VALID,1005.26,VALID,0,VALID,89.2503,VALID,0,VALID,25.4772,VALID,271,VALID,0.235938,
2008-05-18, 02:58:04,VALID,1005.22,VALID,0,VALID,89.38,VALID,0,VALID,25.4383,VALID,126,VALID,0.549609,
2008-05-18, 02:59:04,VALID,1005.21,VALID,0,VALID,89.38,VALID,0,VALID,25.3604,VALID,227,VALID,0.809766,
2008-05-18, 03:00:04,VALID,1005.2,VALID,0,VALID,89.3571,VALID,0,VALID,25.3604,VALID,196,VALID,0.945703,
2008-05-18, 03:01:04,VALID,1005.19,VALID,0,VALID,89.4257,VALID,0,VALID,25.3214,VALID,170,VALID,0.734766,
2008-05-18, 03:02:04,VALID,1005.11,VALID,0,VALID,89.6165,VALID,0,VALID,25.2825,VALID,219,VALID,0.888672,
2008-05-18, 03:03:04,VALID,1005.09,VALID,0,VALID,89.853,VALID,0,VALID,25.263,VALID,193,VALID,1.33438,
2008-05-18, 03:04:04,VALID,1005.09,VALID,0,VALID,90.0284,VALID,0,VALID,25.2435,VALID,179,VALID,1.38594,
2008-05-18, 03:05:04,VALID,1005.08,VALID,0,VALID,90.4251,VALID,0,VALID,25.226,VALID,228,VALID,0.823828,
2008-05-18, 03:06:04,VALID,1005.06,VALID,0,VALID,90.5396,VALID,0,VALID,25.1656,VALID,197,VALID,1.50039,
2008-05-18, 03:07:04,VALID,1005.06,VALID,0,VALID,91.0202,VALID,0,VALID,25.1072,VALID,248,VALID,0.396094,
2008-05-18, 03:08:04,VALID,1005.03,VALID,0,VALID,91.0583,VALID,0,VALID,25.0682,VALID,212,VALID,0.654688,
2008-05-18, 03:09:04,VALID,1005.06,VALID,0,VALID,91.0583,VALID,0,VALID,25.0098,VALID,193,VALID,1.10273,
2008-05-18, 03:10:04,VALID,1005.01,VALID,0,VALID,91.2262,VALID,0,VALID,24.9514,VALID,272,VALID,0.420703,
2008-05-18, 03:11:04,VALID,1005,VALID,0,VALID,91.2033,VALID,0,VALID,24.9143,VALID,207,VALID,0.247266,
2008-05-18, 03:12:04,VALID,1005.02,VALID,0,VALID,91.4398,VALID,0,VALID,24.8327,VALID,206,VALID,0.149219,
2008-05-18, 03:13:04,VALID,1005.03,VALID,0,VALID,91.5618,VALID,0,VALID,24.8346,VALID,206,VALID,0.0148437,
2008-05-18, 03:14:04,VALID,1005.03,VALID,0,VALID,91.7449,VALID,0,VALID,24.7937,VALID,224,VALID,0.266797,
2008-05-18, 03:15:04,VALID,1005.03,VALID,0,VALID,91.661,VALID,0,VALID,24.7761,VALID,219,VALID,0.452734,
2008-05-18, 03:16:04,VALID,1005,VALID,0,VALID,91.7449,VALID,0.100563,VALID,24.7372,VALID,217,VALID,0.113281,
2008-05-18, 03:17:04,VALID,1005,VALID,0,VALID,91.5161,VALID,0,VALID,24.6769,VALID,216,VALID,0.658984,
2008-05-18, 03:18:04,VALID,1004.96,VALID,0,VALID,91.722,VALID,0,VALID,24.6574,VALID,183,VALID,0.319531,
2008-05-18, 03:19:04,VALID,1004.93,VALID,0,VALID,91.7449,VALID,0,VALID,24.6769,VALID,183,VALID,0,
2008-05-18, 03:20:04,VALID,1004.92,VALID,0,VALID,91.661,VALID,0,VALID,24.638,VALID,183,VALID,0,
2008-05-18, 03:21:04,VALID,1004.94,VALID,0,VALID,91.6457,VALID,0,VALID,24.599,VALID,183,VALID,0,
2008-05-18, 03:22:04,VALID,1004.95,VALID,0,VALID,91.8517,VALID,0,VALID,24.599,VALID,183,VALID,0.0128906,
2008-05-18, 03:23:04,VALID,1004.91,VALID,0,VALID,91.9814,VALID,0.100563,VALID,24.6009,VALID,183,VALID,0.0824219,
2008-05-18, 03:24:04,VALID,1004.9,VALID,0,VALID,92.1798,VALID,0,VALID,24.5601,VALID,184,VALID,0.285547,
2008-05-18, 03:25:04,VALID,1004.87,VALID,0,VALID,92.195,VALID,0.100563,VALID,24.5796,VALID,185,VALID,0.189063,
2008-05-18, 03:26:04,VALID,1004.83,VALID,0,VALID,92.2713,VALID,0,VALID,24.5601,VALID,266,VALID,0.237891,
2008-05-18, 03:27:04,VALID,1004.83,VALID,0,VALID,92.2179,VALID,0,VALID,24.562,VALID,266,VALID,0,
2008-05-18, 03:28:04,VALID,1004.82,VALID,0,VALID,92.3171,VALID,0,VALID,24.5425,VALID,266,VALID,0,
2008-05-18, 03:29:04,VALID,1004.82,VALID,0,VALID,92.3018,VALID,0,VALID,24.523,VALID,266,VALID,0,
2008-05-18, 03:30:04,VALID,1004.84,VALID,0,VALID,92.4086,VALID,0,VALID,24.523,VALID,266,VALID,0.220703,
2008-05-18, 03:31:04,VALID,1004.84,VALID,0,VALID,92.5917,VALID,0,VALID,24.4822,VALID,266,VALID,0.285937,
2008-05-18, 03:32:04,VALID,1004.86,VALID,0,VALID,92.7062,VALID,0,VALID,24.4841,VALID,303,VALID,0.326953,
2008-05-18, 03:33:04,VALID,1004.84,VALID,0,VALID,92.7977,VALID,0,VALID,24.4451,VALID,351,VALID,0.313672,
2008-05-18, 03:34:04,VALID,1004.88,VALID,0,VALID,92.8664,VALID,0,VALID,24.447,VALID,58,VALID,0.505469,
2008-05-18, 03:35:04,VALID,1004.89,VALID,0,VALID,92.9121,VALID,0,VALID,24.3673,VALID,69,VALID,0.539453,
2008-05-18, 03:36:04,VALID,1004.89,VALID,0,VALID,93.0495,VALID,0,VALID,24.3478,VALID,72,VALID,0.566016,
2008-05-18, 03:37:04,VALID,1004.89,VALID,0,VALID,93.2325,VALID,0,VALID,24.3088,VALID,78,VALID,0.6,
2008-05-18, 03:38:04,VALID,1004.88,VALID,0,VALID,93.3928,VALID,0,VALID,24.2894,VALID,78,VALID,0.46875,
2008-05-18, 03:39:04,VALID,1004.86,VALID,0,VALID,93.4996,VALID,0,VALID,24.2699,VALID,78,VALID,0.576953,
2008-05-18, 03:40:04,VALID,1004.82,VALID,0,VALID,93.614,VALID,0,VALID,24.2291,VALID,67,VALID,0.509375,
2008-05-18, 03:41:04,VALID,1004.8,VALID,0,VALID,93.6598,VALID,0,VALID,24.231,VALID,59,VALID,0.622266,
2008-05-18, 03:42:04,VALID,1004.79,VALID,0,VALID,93.7055,VALID,0,VALID,24.192,VALID,58,VALID,0.340234,
2008-05-18, 03:43:04,VALID,1004.81,VALID,0,VALID,93.7742,VALID,0,VALID,24.1726,VALID,58,VALID,0.285937,
2008-05-18, 03:44:04,VALID,1004.82,VALID,0,VALID,93.8657,VALID,0,VALID,24.1726,VALID,58,VALID,0.429297,
2008-05-18, 03:45:04,VALID,1004.79,VALID,0,VALID,93.9191,VALID,0,VALID,24.1531,VALID,64,VALID,0.555859,